Retour au catalogue

CZ-6A DEB

ActifSSO
NORAD 56649·DEBRIS·🇨🇳 China

Lancé Nov 11, 2022 depuis Taiyuan Satellite Launch Center

Loading…

Prochains Passages (prochaines 24 heures)

TLE

FraisSource: Space-Track

Époque: Sep 12, 2026, 23:11 UTC

1 56649U 22151AFZ 26255.96629848  .00001210  00000-0  61009-3 0  9996
2 56649  98.8333 265.0868 0040800  69.0943 291.4592 14.17775725183295

Suivez CZ-6A DEB en temps réel avec AllMySat

Download on the App Store